GOES 18

Last updated on Sun Apr 12 2026 00:02:27 GMT+0000 (Coordinated Universal Time)

1 51850U 22021A 26101.49356395 .00000098 00000+0 00000+0 0 9995 2 51850 0.0448 41.0644 0000755 45.5130 153.8145 1.00272452 5927
UTC large
Height (km)
Speed (km/s)
/
Latitude / Longitude
Inclination (degrees)
Orbital Period (minutes)
Azimuth
Elevation
Range (km)
Doppler Factor

Next 0 passes for location: London (51.5072 / 0.1276)

Sorry there are no passes over London.